Home   Weather   Township of Fairfield   Past weeks
Flag for USA

Past Weather in Township of Fairfield, Indiana, USA — Yesterday and Last 2 Weeks

Now
36 °F

Fog.


Feels Like: 32 °F
Forecast: 40 / 25 °F
Wind: 5 mph from West

Location: Purdue University Airport

Current Time: Dec 14, 2019 at 11:43:44 am

Latest Report: Dec 14, 2019 at 11:01 am


Visibility: 6 mi

Pressure: 29.71 "Hg

Humidity: 97%

Dew Point: 35 °F

Location of Township of FairfieldLocation

Past Weather in Township of Fairfield — Graph

°F

Township of Fairfield Temperature Yesterday

Maximum temperature yesterday: 45 °F (at 1:54 pm)
Minimum temperature yesterday: 29 °F (at 4:54 am)
Average temperature yesterday: 36 °F

High & Low Weather Summary for the Past Weeks

 TemperatureHumidityPressure
High52 °F (Dec 8, 1:54 pm)100% (Nov 30, 9:23 pm)30.55 "Hg (Nov 30, 9:23 pm)
Low16 °F (Dec 10, 11:54 pm)42% (Dec 10, 2:54 pm)29.34 "Hg (Dec 1, 4:54 am)
Average35 °F80%29.98 "Hg
* Reported Nov 29 10:54 am — Dec 14 10:05 am, Township of Fairfield. Weather by CustomWeather, © 2019

Note: Actual official high and low records may vary slightly from our data, if they occured in-between our weather recording intervals... More about our weather records

Township of Fairfield Weather History for the Previous 24 Hours

Scroll right to see more
 ConditionsComfort  
Time TempWeatherWind HumidityBarometerVisibility
10:05 am
Sat, Dec 14
35 °FFog.3 mph100%29.71 "Hg3 mi
9:54 am35 °FFog.3 mph100%29.72 "Hg2 mi
8:54 am34 °FFog.3 mph100%29.71 "Hg0 mi
7:54 am33 °FFog.5 mph96%29.71 "Hg0 mi
7:36 am33 °FFog.3 mph96%29.70 "Hg0 mi
6:54 am34 °FLow clouds.No wind92%29.70 "Hg7 mi
6:44 am33 °FLow clouds.No wind96%29.69 "Hg7 mi
6:29 am34 °FMostly cloudy.No wind92%29.69 "Hg7 mi
5:54 am33 °FMostly cloudy.3 mph96%29.72 "Hg8 mi
5:12 am32 °FLow clouds.3 mph100%29.72 "Hg7 mi
4:54 am31 °FPassing clouds.3 mph100%29.73 "Hg8 mi
3:54 am33 °FPassing clouds.5 mph92%29.71 "Hg9 mi
2:54 am34 °FPassing clouds.No wind92%29.74 "Hg10 mi
2:10 am35 °FPassing clouds.No wind92%29.75 "Hg10 mi
1:54 am35 °FPassing clouds.No wind92%29.76 "Hg10 mi
12:54 am36 °FOvercast.No wind89%29.77 "Hg10 mi
11:54 pm
Fri, Dec 13
34 °FOvercast.No wind92%29.80 "Hg10 mi
11:29 pm35 °FOvercast.No wind92%29.79 "Hg10 mi
10:54 pm35 °FOvercast.No wind88%29.81 "Hg10 mi
10:38 pm33 °FPassing clouds.No wind92%29.81 "Hg10 mi
9:54 pm33 °FClear.No wind92%29.83 "Hg10 mi
8:54 pm34 °FPassing clouds.No wind92%29.84 "Hg10 mi
7:54 pm35 °FClear.No wind88%29.85 "Hg10 mi
6:54 pm39 °FPassing clouds.3 mph79%29.87 "Hg10 mi
5:54 pm39 °FPassing clouds.No wind73%29.88 "Hg10 mi
4:54 pm43 °FSunny.No wind62%29.89 "Hg10 mi
3:54 pm44 °FPassing clouds.5 mph60%29.88 "Hg10 mi
2:54 pm45 °FSunny.6 mph58%29.89 "Hg10 mi
1:54 pm45 °FSunny.7 mph58%29.91 "Hg10 mi
12:54 pm44 °FSunny.6 mph58%29.94 "Hg10 mi
11:54 am42 °FSunny.7 mph62%29.98 "Hg10 mi
Weather by CustomWeather, © 2019

See weather overview

Advertising